Location: Unspecified
(0.0000°N, 0.0000°E)
Time: 08:19:13
(UTC+00:00)

STARLINK-2666 - Pass Details

Date: 12 June 2021
Orbit: 349 x 351 km, 53.0° (Epoch: 20 June)

Event Time Altitude Azimuth Distance (km) Brightness Sun altitude
Exits shadow 04:33:19 - 152° (SSE) 1,425 5.8 -19.8°
Reaches altitude 10° 04:34:15 10° 135° (SE) 1,303 5.8 -19.6°
Maximum altitude 04:34:44 10° 125° (SE) 1,285 5.9 -19.5°
Drops below altitude 10° 04:35:14 10° 115° (ESE) 1,302 6.1 -19.4°
Sets 04:38:45 0° 69° (ENE) 2,138 8.3 -18.6°
